Starlink 31737

operational
NORAD ID: 59537 Int'l Des: 2024-074 Owner: SPXS Country: US Constellation: starlink
LEOCIRCULAR

Über Starlink 31737

Beschreibung wird geladen...

Live-Position

3D-Globus wird geladen...

Nächste Überflüge

Höhenverlauf

Altitude vs Time

uPlot chart will show altitude changes over time

Zweizeiliger Elementsatz

1 59537U 24074D 25303.49520346 .00000073 00000-0 12201-4 0 9992
2 59537 43.0038 358.7229 0002510 250.7712 109.2869 15.27574350 86106
Epoch: 30. Okt. 2025 • Age: 17 hours

Aktueller Status

Höhe 493.4 km
Geschwindigkeit 7.62 km/s
Subsatellitenpunkt -39.91°S, 128.15°E
Startdatum 18. Apr. 2024
Alter 1.5 years
Typ internet

Technische Details

Klassifizierung Payload
Masse 730.00 kg
Trockenmasse 700.00 kg
Gesamtmasse 730.00 kg
Länge 0.30 m
Durchmesser 4.10 m
Spannweite 29.00 m
Form Box + pan
Hersteller SPXS
Bus-Typ Starlink V2M
Phasenstatus In Orbit
Besitzer/Staat SPXS/US

Große Konstellationen

Loading constellations...